Date,TemperatureHighF,TemperatureAvgF,TemperatureLowF,DewpointHighF,DewpointAvgF,DewpointLowF,HumidityHigh,HumidityAvg,HumidityLow,PressureMaxIn,PressureMinIn,WindSpeedMaxMPH,WindSpeedAvgMPH,GustSpeedMaxMPH,PrecipitationSumIn
2013-3-1,35.2,32.6,30.3,59.5,59.5,59.5,0,0,100,29.73,29.62,11,4,14,0.14
2013-3-2,33.8,29.4,24.8,59.5,59.5,59.5,0,0,100,29.79,29.72,12,7,15,0.00
2013-3-3,39.5,30.0,19.2,59.5,59.5,59.5,0,0,100,29.79,29.66,7,2,10,0.00
2013-3-4,46.7,39.1,32.1,59.5,59.5,59.5,0,0,100,29.69,29.40,23,11,26,0.00
2013-3-5,41.8,36.0,31.4,59.5,59.5,59.5,0,0,100,29.60,29.35,14,7,21,0.02
2013-3-6,36.3,32.3,28.7,59.5,59.5,59.5,0,0,100,29.94,29.59,15,8,22,0.02
2013-3-7,41.2,32.0,24.0,59.5,59.5,59.5,0,0,100,30.01,29.93,8,2,11,0.01
2013-3-8,49.4,38.1,25.4,59.5,59.5,59.5,0,0,100,30.06,29.83,13,5,16,0.00
2013-3-9,57.5,47.7,38.1,59.5,59.5,59.5,0,0,100,29.84,29.46,20,12,24,0.00
2013-3-10,63.6,55.5,49.0,59.5,59.5,59.5,0,0,100,29.47,29.23,21,10,27,0.32
2013-3-11,49.9,39.2,34.9,59.5,59.5,59.5,0,0,100,29.57,29.26,14,8,19,0.04
2013-3-12,49.2,38.0,28.4,59.5,59.5,59.5,0,0,100,29.75,29.57,13,6,17,0.00
2013-3-13,41.1,32.9,24.8,59.5,59.5,59.5,0,0,100,29.99,29.75,13,7,17,0.00
2013-3-14,44.8,32.5,21.0,59.5,59.5,59.5,0,0,100,30.00,29.72,16,5,19,0.00
2013-3-15,68.1,52.5,28.7,59.5,59.5,59.5,0,0,100,29.72,29.23,13,5,19,0.00
2013-3-16,63.1,48.4,37.0,59.5,59.5,59.5,0,0,100,29.64,29.22,15,7,21,0.02
2013-3-17,37.4,35.2,32.8,59.5,59.5,59.5,0,0,100,29.69,29.36,16,5,21,1.19
2013-3-18,44.6,40.1,35.9,59.5,59.5,59.5,0,0,100,29.57,29.23,15,6,20,0.19
2013-3-19,49.4,37.2,28.5,59.5,59.5,59.5,0,0,100,29.79,29.56,14,5,18,0.00
2013-3-20,38.6,30.7,23.4,59.5,59.5,59.5,0,0,100,29.82,29.68,15,6,19,0.00
2013-3-21,37.0,27.8,19.7,59.5,59.5,59.5,0,0,100,29.71,29.58,9,3,12,0.00
2013-3-22,39.5,32.8,24.0,59.5,59.5,59.5,0,0,100,29.66,29.58,8,3,11,0.00
2013-3-23,53.2,43.6,35.2,59.5,59.5,59.5,0,0,100,29.63,29.38,10,4,17,0.00
2013-3-24,44.4,34.2,31.5,59.5,59.5,59.5,0,0,100,29.44,29.04,14,6,22,0.14
2013-3-25,34.9,31.8,29.9,59.5,59.5,59.5,0,0,100,29.72,29.27,12,8,17,0.18
2013-3-26,45.5,34.3,27.8,59.5,59.5,59.5,0,0,100,29.93,29.72,9,4,14,0.02
2013-3-27,48.8,36.5,25.4,59.5,59.5,59.5,0,0,100,29.99,29.89,7,2,11,0.00
2013-3-28,53.8,41.6,28.0,59.5,59.5,59.5,0,0,100,29.98,29.84,10,3,13,0.00
2013-3-29,58.0,47.3,38.8,59.5,59.5,59.5,0,0,100,29.87,29.77,10,4,13,0.00
2013-3-30,56.9,44.8,33.5,59.5,59.5,59.5,0,0,100,29.80,29.49,16,4,19,0.15
2013-3-31,65.9,53.9,46.5,59.5,59.5,59.5,0,0,100,29.50,29.42,11,3,14,0.00